TimeCST,TemperatureF,Dew PointF,Humidity,Sea Level PressureIn,VisibilityMPH,Wind Direction,Wind SpeedMPH,Gust SpeedMPH,PrecipitationIn,Events,Conditions,WindDirDegrees,DateUTC
12:53 AM,34.0,28.0,79,30.00,10.0,WNW,12.7,-,N/A,,Clear,290,2013-02-14 06:53:00
1:53 AM,33.1,27.0,78,30.01,10.0,West,10.4,-,N/A,,Clear,280,2013-02-14 07:53:00
2:53 AM,32.0,27.0,82,30.02,10.0,WNW,10.4,-,N/A,,Clear,290,2013-02-14 08:53:00
3:53 AM,28.9,25.0,85,30.03,10.0,SW,4.6,-,N/A,,Clear,220,2013-02-14 09:53:00
4:53 AM,28.9,25.0,85,30.04,10.0,West,6.9,-,N/A,,Clear,260,2013-02-14 10:53:00
5:53 AM,30.2,26.6,86,30.01,10.0,WNW,8.1,-,N/A,,Clear,290,2013-02-14 11:53:00
6:53 AM,28.9,25.0,85,30.06,10.0,WNW,8.1,-,N/A,,Clear,300,2013-02-14 12:53:00
7:53 AM,30.0,26.1,85,30.10,10.0,SW,5.8,-,N/A,,Overcast,230,2013-02-14 13:53:00
8:53 AM,33.1,28.0,82,30.14,10.0,SW,5.8,-,N/A,,Overcast,220,2013-02-14 14:53:00
9:53 AM,35.1,28.0,76,30.15,10.0,West,8.1,-,N/A,,Overcast,280,2013-02-14 15:53:00
10:53 AM,37.0,28.9,73,30.15,10.0,WNW,6.9,-,N/A,,Overcast,290,2013-02-14 16:53:00
11:53 AM,39.9,23.0,51,30.19,10.0,NW,9.2,-,N/A,,Overcast,310,2013-02-14 17:53:00
12:53 PM,41.0,21.0,45,30.19,10.0,West,12.7,18.4,N/A,,Overcast,280,2013-02-14 18:53:00
1:53 PM,39.9,24.1,53,30.21,10.0,NNW,16.1,25.3,N/A,,Overcast,330,2013-02-14 19:53:00
2:53 PM,41.0,19.9,43,30.20,10.0,NNW,19.6,27.6,N/A,,Overcast,330,2013-02-14 20:53:00
3:53 PM,39.0,16.0,39,30.24,10.0,NNW,24.2,-,N/A,,Mostly Cloudy,340,2013-02-14 21:53:00
4:53 PM,37.9,16.0,41,30.28,10.0,NNW,20.7,31.1,N/A,,Partly Cloudy,340,2013-02-14 22:53:00
5:53 PM,35.1,15.1,44,30.30,10.0,North,23.0,27.6,N/A,,Partly Cloudy,360,2013-02-14 23:53:00
6:53 PM,30.9,16.0,54,30.34,10.0,NNW,12.7,-,N/A,,Partly Cloudy,340,2013-02-15 00:53:00
7:53 PM,28.0,16.0,61,30.36,10.0,North,10.4,-,N/A,,Clear,350,2013-02-15 01:53:00
8:53 PM,23.0,16.0,74,30.38,10.0,NNW,10.4,-,N/A,,Clear,340,2013-02-15 02:53:00
9:53 PM,21.9,16.0,78,30.39,10.0,NW,9.2,-,N/A,,Clear,320,2013-02-15 03:53:00
10:53 PM,19.9,15.1,81,30.39,10.0,NW,8.1,-,N/A,,Clear,320,2013-02-15 04:53:00
11:53 PM,19.0,14.0,81,30.40,10.0,North,5.8,-,N/A,,Clear,360,2013-02-15 05:53:00